Location: Dieppe
(49.9230°N, 1.0775°E)
Time: 11:16:36
(UTC+02:00)

ISS - Visible Passes

Search period start: 23 September 2018 00:00
Search period end: 03 October 2018 00:00
Orbit: 403 x 408 km, 51.6° (Epoch: 23 September)

Date Brightness Start Highest point End Pass type
(mag) Time Alt. Az. Time Alt. Az. Time Alt. Az.
23 Sep -2.6 21:09:17 10° SSW 21:12:01 24° SE 21:12:21 24° SE visible
23 Sep -0.7 22:44:56 10° WSW 22:45:03 11° WSW 22:45:03 11° WSW visible
24 Sep -1.9 20:18:17 10° S 20:20:20 16° SE 20:22:24 10° E visible
24 Sep -3.1 21:53:05 10° WSW 21:55:36 46° SW 21:55:36 46° SW visible
25 Sep -3.4 21:01:23 10° SW 21:04:32 44° SSE 21:05:59 26° E visible
25 Sep -1.1 22:37:41 10° W 22:38:40 18° W 22:38:40 18° W visible
26 Sep -3.8 21:45:43 10° WSW 21:48:56 81° NW 21:48:56 81° NW visible
27 Sep -3.9 20:53:48 10° WSW 20:57:06 75° SSE 20:59:06 22° ENE visible
27 Sep -1.3 22:30:26 10° W 22:31:47 22° WNW 22:31:47 22° WNW visible
28 Sep -3.7 21:38:24 10° W 21:41:42 66° N 21:41:52 64° NNE visible
29 Sep -3.7 20:46:24 10° W 20:49:43 77° N 20:51:54 19° ENE visible
29 Sep -1.4 22:23:05 10° WNW 22:24:34 24° WNW 22:24:34 24° WNW visible
30 Sep -3.6 21:31:04 10° W 21:34:21 62° N 21:34:34 60° NNE visible
01 Oct -3.5 20:39:02 10° W 20:42:19 63° N 20:44:32 19° ENE visible
01 Oct -1.5 22:15:39 10° WNW 22:17:12 25° WNW 22:17:12 25° WNW visible
02 Oct -3.8 21:23:38 10° WNW 21:26:57 70° N 21:27:09 67° NE visible
